Weather History for Chievres, Belgium

Change the Weather History Date:

Sunday, November 10, 2013

  Actual Average Record
Temperature  
Mean Temperature 42 °F -  
Max Temperature 48 °F 44 °F 64 °F (2011)
Min Temperature 35 °F 38 °F 30 °F (2006)
Degree Days  
Heating Degree Days 24    
Moisture  
Dew Point 39 °F    
Average Humidity 90    
Maximum Humidity 100    
Minimum Humidity 62    
Precipitation  
Precipitation 0.16 in - - ()
Sea Level Pressure  
Sea Level Pressure 29.90 in    
Wind  
Wind Speed 6 mph ()    
Max Wind Speed 22 mph    
Max Gust Speed -    
Visibility 6.3 miles    
Events Rain    
Averages and records for this station are not official NWS values.
T = Trace of Precipitation, MM = Missing Value Source: Averaged Metar Reports

Daily Weather History Graph

Daily Weather History Graph

Search for Another Location

Airport:

Trip Planner

Search our weather history database for the weather conditions in past years. The results will help you decide how hot, cold, wet, or windy it might be!

Date:

Astronomy

Nov. 10, 2013 Rise Set
Actual Time 7:51 AM CET 5:05 PM CET
Civil Twilight 7:15 AM CET 5:40 PM CET
Nautical Twilight 6:36 AM CET 6:20 PM CET
Astronomical Twilight 5:57 AM CET 6:58 PM CET
Moon 1:43 PM CET (11/10) No Moon Set
Length of Visible Light 10h 25m
Length of Day
9h 14m
First Quarter, 52% of the Moon is Illuminated
Nov 10
First Quarter
Nov 17
Full
Nov 25
Last Quarter
Dec 3
New
Dec 9
First Quarter

Hourly Weather History & Observations

Time (CET) Temp. Windchill Dew Point Humidity Pressure Visibility Wind Dir Wind Speed Gust Speed Precip Events Conditions
12:25 AM 44.6 °F 40.2 °F 41.0 °F 87% 29.65 in 6.2 mi West 8.1 mph - N/A   Mostly Cloudy
1:00 AM 43 °F - 40 °F 86% 29.67 in 22 mi WSW 4.5 mph - -   Clear
1:25 AM 42.8 °F 40.1 °F 41.0 °F 93% 29.65 in 6.2 mi SW 4.6 mph - N/A   Mostly Cloudy
2:25 AM 42.8 °F 38.6 °F 41.0 °F 93% 29.65 in 6.2 mi SW 6.9 mph - N/A   Mostly Cloudy
3:25 AM 42.8 °F - 41.0 °F 93% 29.62 in 6.2 mi Variable 2.3 mph - N/A   Mostly Cloudy
4:00 AM 42 °F - 42 °F 100% 29.65 in 7 mi 2.2 mph - -   Scattered Clouds
4:25 AM 42.8 °F - 42.8 °F 100% 29.62 in 6.2 mi Variable 2.3 mph - N/A   Overcast
4:54 AM 42.8 °F - 42.8 °F 100% 29.62 in 4.3 mi Variable 1.2 mph - N/A   Overcast
5:22 AM 42.8 °F - 42.8 °F 100% 29.62 in - Variable 2.3 mph - N/A   Mostly Cloudy
5:25 AM 42.8 °F - 42.8 °F 100% 29.62 in 3.1 mi Variable 2.3 mph - N/A   Mostly Cloudy
6:24 AM 42.8 °F 40.1 °F 42.8 °F 100% 29.65 in 5.0 mi NW 4.6 mph - N/A   Mostly Cloudy
6:25 AM 42.8 °F 40.1 °F 42.8 °F 100% 29.65 in 4.3 mi NW 4.6 mph - N/A   Mostly Cloudy
6:55 AM 42.8 °F 38.6 °F 41.0 °F 93% 29.65 in 6.2 mi WNW 6.9 mph - N/A   Mostly Cloudy
7:00 AM 42 °F - 40 °F 92% 29.68 in 7 mi WNW 6.7 mph - - Rain Light Rain
7:25 AM 42.8 °F 39.3 °F 41.0 °F 93% 29.68 in 6.2 mi WNW 5.8 mph - N/A   Overcast
8:21 AM 41.0 °F 35.2 °F 39.2 °F 93% 29.71 in 6.2 mi NW 9.2 mph - N/A   Overcast
8:25 AM 41.0 °F 35.2 °F 39.2 °F 93% 29.71 in 6.2 mi NW 9.2 mph - N/A   Overcast
8:40 AM 41.0 °F 35.2 °F 39.2 °F 93% 29.74 in 6.2 mi NW 9.2 mph - N/A   Mostly Cloudy
8:56 AM 41.0 °F 35.8 °F 37.4 °F 87% 29.74 in 6.2 mi WNW 8.1 mph - N/A   Overcast
9:25 AM 41.0 °F 38.0 °F 39.2 °F 93% 29.74 in 6.2 mi WNW 4.6 mph - N/A   Mostly Cloudy
10:00 AM 41 °F - 40 °F 92% 29.79 in 19 mi West 6.7 mph - -   Clear
10:25 AM 42.8 °F 36.6 °F 41.0 °F 93% 29.80 in 6.2 mi West 11.5 mph - N/A   Scattered Clouds
11:25 AM 46.4 °F 39.2 °F 39.2 °F 76% 29.83 in 6.2 mi NW 18.4 mph - N/A   Partly Cloudy
12:25 PM 46.4 °F 39.5 °F 37.4 °F 71% 29.86 in 6.2 mi NW 17.3 mph - N/A   Mostly Cloudy
1:00 PM 46 °F - 37 °F 62% 29.91 in 7 mi NW 22.4 mph - - Rain Drizzle
1:25 PM 46.4 °F 40.1 °F 37.4 °F 71% 29.92 in 6.2 mi NW 15.0 mph - N/A   Scattered Clouds
2:25 PM 44.6 °F 39.2 °F 41.0 °F 87% 29.98 in 6.2 mi North 10.4 mph - N/A   Mostly Cloudy
2:35 PM 44.6 °F 39.2 °F 39.2 °F 81% 29.98 in 6.2 mi North 10.4 mph - N/A   Mostly Cloudy
2:51 PM 44.6 °F 40.2 °F 39.2 °F 81% 29.98 in 6.2 mi NW 8.1 mph - N/A   Mostly Cloudy
3:25 PM 44.6 °F 38.1 °F 39.2 °F 81% 30.01 in 6.2 mi NW 13.8 mph - N/A   Mostly Cloudy
4:00 PM 44 °F - 40 °F 79% 30.04 in 25 mi WNW 13.4 mph - -   Clear
4:25 PM 44.6 °F 39.2 °F 41.0 °F 87% 30.06 in 6.2 mi WNW 10.4 mph - N/A   Scattered Clouds
5:25 PM 42.8 °F 37.5 °F 37.4 °F 81% 30.09 in 6.2 mi WNW 9.2 mph - N/A   Partly Cloudy
5:49 PM 42.8 °F 37.5 °F 37.4 °F 81% 30.12 in 3.7 mi WNW 9.2 mph - N/A   Scattered Clouds
6:03 PM 42.8 °F 37.5 °F 39.2 °F 87% 30.12 in 6.2 mi WNW 9.2 mph - N/A   Mostly Cloudy
6:25 PM 41.0 °F 37.1 °F 37.4 °F 87% 30.15 in 6.2 mi WNW 5.8 mph - N/A   Partly Cloudy
7:00 PM 40 °F - 38 °F 91% 30.18 in 19 mi West 4.5 mph - -   Clear
7:25 PM 39.2 °F - 37.4 °F 93% 30.18 in 6.2 mi Variable 1.2 mph - N/A   Unknown
8:25 PM 39.2 °F 35.0 °F 39.2 °F 100% 30.21 in 6.2 mi WSW 5.8 mph - N/A   Unknown
9:19 PM 37.4 °F 33.8 °F 35.6 °F 93% 30.24 in 4.3 mi SSW 4.6 mph - N/A   Unknown
9:25 PM 35.6 °F 30.7 °F 35.6 °F 100% 30.24 in 3.1 mi SW 5.8 mph - N/A   Unknown
9:53 PM 35.6 °F 31.7 °F 35.6 °F 100% 30.24 in 2.8 mi SW 4.6 mph - N/A   Partly Cloudy
10:00 PM 36 °F - 35 °F 96% 30.27 in 3 mi 2.2 mph - -   Mist
10:08 PM 35.6 °F 31.7 °F 35.6 °F 100% 30.24 in 5.0 mi SW 4.6 mph - N/A   Partly Cloudy
10:25 PM 37.4 °F 33.8 °F 37.4 °F 100% 30.27 in 6.2 mi WSW 4.6 mph - N/A   Unknown
11:25 PM 37.4 °F 34.9 °F 35.6 °F 93% 30.27 in 5.0 mi WSW 3.5 mph - N/A   Unknown